Location: *
(34.6780°N, 135.8310°E)
Time: 13:46:53
(UTC+00:00)

Cosmos 1758 - Pass Details

Date: 18 October 2019
Orbit: 540 x 563 km, 82.5° (Epoch: 13 November)

Event Time Altitude Azimuth Distance (km) Brightness Sun altitude
Rises 19:28:19 0° 351° (N) 2,715 6.8 -20.6°
Reaches altitude 10° 19:30:29 10° 349° (N) 1,821 5.9 -20.1°
Maximum altitude 19:34:28 73° 266° (W) 577 3.1 -19.3°
Drops below altitude 10° 19:38:28 10° 181° (S) 1,821 5.9 -18.5°
Sets 19:40:38 0° 179° (S) 2,715 6.9 -18.1°
